Location: UBC Liquid-Mirror Observatory
(49.2876°N, 122.5728°W)
Time: 22:54:21
(UTC-07:00)

Daily predictions for brighter satellites

Satellite Brightness Start Highest point End
(mag) Time Altitude Azimuth Time Altitude Azimuth Time Altitude Azimuth
Cosmos 1943 Rocket 3.6 21:35:33 10° NNW 21:40:15 27° NE 21:44:57 10° ESE
Cosmos 1943 4.3 21:36:06 10° SSE 21:40:36 25° ESE 21:45:07 10° NE
CZ-2C R/B 3.1 21:39:37 10° SW 21:41:21 19° W 21:43:07 10° NW
Lacrosse 4 Rocket 3.3 21:40:51 10° ESE 21:41:53 11° ESE 21:42:56 10° E
USA 186 4.4 21:41:17 10° WSW 21:42:35 13° W 21:43:51 10° WNW
H-2A R/B 3.5 21:39:27 10° ESE 21:43:20 23° ENE 21:47:18 10° N
MetOp-A 4.2 21:38:27 10° SSE 21:43:46 70° ENE 21:49:07 10° N
Nimbus 7 Rocket 4.4 21:38:42 10° NNE 21:44:42 71° ESE 21:50:36 10° S
UNK 4.5 21:43:41 10° NNE 21:48:56 51° ESE 21:54:24 10° S
SeaSat 1 2.6 21:45:10 10° SSE 21:50:05 74° WSW 21:55:04 10° NNW
SPOT 1/Viking Rocket 3.8 21:46:45 10° SSE 21:51:49 60° ENE 21:56:54 10° N
CZ-4B R/B 3.9 21:50:01 10° NNE 21:54:53 46° E 21:59:51 10° S
Cosmos 1238 4.1 22:03:19 10° S 22:06:22 72° E 22:09:25 10° NNE
Cosmos 2369 Rocket 2.3 22:14:23 10° NNW 22:20:07 84° WSW 22:25:15 13° SSE
ARGOS 3.2 22:14:47 10° SSE 22:20:12 82° ENE 22:25:40 10° NNW
ISS -2.6 22:20:16 10° SSW 22:23:11 30° SE 22:26:06 10° E
Tsikada Rocket 4.5 22:18:09 10° SSW 22:24:31 67° WNW 22:30:54 10° N
Cosmos 1825 Rocket 3.6 22:20:50 10° S 22:25:15 69° E 22:29:40 10° NNE
CZ-4C R/B 3.5 22:22:05 13° SSE 22:25:44 68° ENE 22:29:44 10° N
ATLAS 3B R/B 3.2 22:20:59 10° S 22:28:11 45° ESE 22:35:14 10° NE
SL-27 R/B 4.4 22:28:34 12° ESE 22:29:03 12° E 22:30:29 10° ENE
ATLAS CENTAUR R/B 4.4 22:25:18 10° W 22:29:30 26° NNW 22:33:41 10° NNE
SL-8 R/B 3.7 22:27:04 10° W 22:31:55 81° S 22:36:46 10° E
SL-16 R/B 4.1 22:27:04 10° WSW 22:32:10 34° NW 22:37:18 10° NNE
Envisat 4.5 22:28:13 10° SSW 22:32:47 33° W 22:37:23 10° NNW
Atlas Centaur 2 4.2 22:29:12 10° SW 22:34:26 19° S 22:38:00 15° SE
NOAA 11 4.2 22:31:39 12° SSE 22:36:45 81° WSW 22:42:12 10° NNW
Cosmos 407 Rocket 3.8 22:31:54 10° S 22:36:56 48° ESE 22:41:57 10° NNE
CZ-4 R/B 3.9 22:32:00 10° NNE 22:37:00 75° ESE 22:42:01 10° S
Cosmos 1953 3.2 22:36:12 10° N 22:39:56 37° ENE 22:42:23 18° SE
USA 234 3.8 22:35:50 14° SSE 22:41:16 49° SW 22:47:38 10° WNW
SL-08 RB Rocket 3.8 22:37:33 13° S 22:41:32 76° WSW 22:46:06 10° NNW
Lacrosse 5 rocket 3.1 22:39:48 10° W 22:43:30 34° NNW 22:47:22 10° NE
Cosmos 1515 4.5 22:40:22 10° SSW 22:44:08 52° WNW 22:47:56 10° N
Cosmos 2263 4.3 22:40:52 10° NNW 22:46:29 73° WSW 22:50:53 17° SSE
Landsat 7 3.8 22:45:23 16° SSE 22:49:11 86° WSW 22:53:59 10° NNW
Spot 4 4.0 22:48:23 19° SSE 22:51:46 61° ENE 22:56:31 10° N
Meteor 1-22 Rocket 4.5 22:46:28 10° NNW 22:51:58 68° W 22:57:03 13° S
YAOGAN 6 4.3 22:49:06 10° SSW 22:52:25 30° W 22:55:47 10° NNW
COSMOS 2406 4.3 22:51:29 18° SE 22:54:11 26° ESE 22:58:48 10° NE
Cosmos 1954 Rocket 4.5 22:52:49 17° SSE 22:56:32 42° ESE 23:01:31 10° NE
COSMOS 2455 3.2 22:54:26 10° SW 23:00:26 70° NW 23:06:29 10° NNE
Cosmos 1544 4.4 22:59:27 10° N 23:02:47 29° ENE 23:04:31 20° ESE
Lacrosse 5 3.5 22:58:37 10° WNW 23:03:15 34° N 23:07:52 10° ENE
Cosmos 1346 Rocket 3.0 22:59:54 11° SSW 23:03:39 67° WNW 23:07:36 10° N
Terra 1.8 23:01:40 20° SSE 23:04:59 86° WSW 23:09:48 10° NNW
USA 238 DEB 4.4 23:01:03 16° S 23:05:50 34° ESE 23:12:03 10° NE
USA 238 4.4 23:01:14 16° S 23:05:56 34° ESE 23:12:08 10° NE
IGS 5A 3.4 23:04:04 22° SSE 23:06:40 89° WSW 23:10:53 10° NNW
Cosmos 2084 3.3 23:04:32 10° NW 23:08:39 89° NE 23:11:07 25° SE
Cosmos 1953 Rocket 4.2 23:07:05 10° SSW 23:11:25 56° WNW 23:15:49 10° N
CZ-4C R/B 4.2 23:12:00 10° ESE 23:12:21 10° ESE 23:13:04 10° E
SAR-Lupe-2 4.2 23:14:02 22° SSW 23:16:06 49° W 23:19:37 10° NNW
Cosmos 1842 3.2 23:14:45 22° S 23:17:11 85° ESE 23:21:08 10° N
Cosmos 2221 4.1 23:16:04 10° NNE 23:19:36 24° ENE 23:21:43 17° ESE
Lacrosse 4 Rocket 1.3 23:15:50 10° SSW 23:19:54 90° NE 23:24:03 10° NNE
Cosmos 2279 Rocket 4.4 23:15:00 10° NNW 23:21:09 61° W 23:26:09 16° S
Geosat 4.0 23:16:15 10° NNE 23:21:20 88° ESE 23:26:22 10° SSW
H-2A R/B 2.3 23:18:56 19° S 23:22:22 58° W 23:27:24 10° NNW
Cosmos-2242 3.3 23:18:22 10° NNW 23:22:46 66° W 23:25:25 23° S
Cosmos 1943 3.7 23:18:35 10° SW 23:24:12 63° WNW 23:29:54 10° NNE
Cosmos 1943 Rocket 2.3 23:18:58 10° NNW 23:24:28 66° WSW 23:27:52 24° S
Cosmos 1758 3.4 23:21:41 10° NNW 23:25:48 75° W 23:27:57 27° S
Cosmos 1570 Rocket 4.0 23:21:54 10° NNW 23:27:19 90° ENE 23:30:26 26° SSE
Cosmos 1900 4.4 23:25:58 10° SSW 23:31:08 85° ESE 23:36:18 10° NE
Cosmos 1850 Rocket 4.4 23:30:31 26° SSE 23:33:00 44° ESE 23:37:57 10° NE
Cosmos 1932 4.4 23:31:51 14° SSW 23:37:09 61° ESE 23:43:18 10° NE
Cosmos 1656 Rocket 3.7 23:33:37 10° NNW 23:39:22 85° ENE 23:42:37 27° SSE
Okean 3 Rocket 4.3 23:37:59 28° SE 23:39:31 38° E 23:43:37 10° NNE
Cosmos 1733 3.9 23:36:43 10° N 23:40:28 44° ENE 23:41:50 31° SE
SL-23 DEB 4.1 23:36:24 10° SW 23:41:03 42° SSE 23:44:17 10° E
DMSP B5D2-2 4.3 23:38:35 10° N 23:43:53 72° WNW 23:48:02 16° SSW
Cosmos 1607 4.4 23:40:55 25° S 23:44:04 42° ESE 23:49:53 10° NE
Cosmos 1023 Rocket 4.5 23:42:48 24° S 23:46:01 71° ESE 23:51:18 10° NNE
Cosmos 676 Rocket 4.5 23:42:28 10° SW 23:47:45 63° WNW 23:53:04 10° NNE
Meteor 2-5 Rocket 4.1 23:48:01 27° SSE 23:50:57 52° E 23:56:32 10° NNE
Cosmos 1140 Rocket 3.4 23:48:52 23° SSW 23:52:08 79° ESE 23:57:24 10° NNE
COSMOS 2487 3.1 23:55:28 37° ESE 23:55:48 38° ESE 23:59:11 10° NE
